#timestamp,LO_Frequency,Hit,StdDev 
1649649615.2,286047000.9,N
1649649635.1,286046998.1,N
1649649636.0,286046998.1,N
1649649655.8,286047002.7,N
1649649675.7,286047001.9,N
1649649695.5,286047001.7,N
1649649715.3,286047001.9,N
1649649735.2,286047002.0,N
1649649755.0,286047002.1,N
1649649755.9,286047002.1,N
1649649775.7,286046999.7,N
1649649795.6,286047002.8,N
1649649815.4,286047002.5,N
1649649835.3,286047000.3,N
1649649855.1,286046998.2,N
1649649856.0,286046998.2,N
1649649875.8,286047001.1,N
1649649895.7,286046998.5,N
1649649915.5,286046998.4,N
1649649935.3,286046998.5,N
1649649955.2,286047001.2,N
1649649975.0,286046998.5,N
1649649975.9,286046998.5,N
1649649995.8,286047000.8,N
1649650015.6,286047002.3,N
1649650035.4,286046999.7,N
1649650055.3,286047002.1,N
1649650075.1,286047002.6,N
1649650095.8,286047004.0,N
1649650115.7,286047001.6,N
1649650135.5,286046999.7,N
1649650155.4,286047002.1,N
1649650175.2,286047002.8,N
1649650195.0,286046999.8,N
1649650195.9,286046999.8,N
1649650215.8,286047000.8,N
1649650235.6,286046998.3,N
1649650255.4,286046998.3,N
1649650275.3,286046998.4,N
1649650295.1,286046998.4,N
1649650315.9,286046998.6,N
1649650335.7,286046998.3,N
1649650355.5,286046998.4,N
1649650375.4,286047000.8,N
1649650395.2,286047001.1,N
1649650415.1,286046998.1,N
1649650416.0,286046998.1,N
1649650435.8,286046998.7,N
1649650455.6,286047002.8,N
1649650475.5,286047000.1,N
1649650495.3,286047000.2,N
1649650515.1,286047002.2,N
1649650535.9,286047002.4,N
1649650555.7,286046999.9,N
1649650575.6,286047000.6,N
1649650595.4,286046999.7,N
1649650615.2,286047000.6,N
1649650635.1,286047002.6,N
1649650636.0,286047002.6,N
1649650655.8,286047002.8,N
1649650675.6,286047000.4,N
1649650695.5,286046999.9,N
1649650715.3,286047000.0,N
1649650735.2,286046999.7,N
1649650755.9,286046999.8,N
1649650775.7,286047002.8,N
1649650795.6,286047002.0,N
1649650815.4,286047002.7,N
1649650835.2,286046999.8,N
1649650855.1,286047000.1,N
1649650856.0,286047000.1,N
1649650875.8,286047001.0,N
1649650895.7,286047000.7,N
1649650915.5,286046998.4,N
1649650935.3,286046998.4,N
1649650955.2,286047000.0,N
1649650975.9,286047002.5,N
1649650995.7,286047002.1,N
1649651015.6,286047002.7,N
1649651035.4,286047001.0,N
1649651055.2,286046998.3,N
1649651075.1,286046998.3,N
1649651076.0,286046998.3,N
1649651095.8,286047000.3,N
1649651115.7,286046998.5,N
1649651135.5,286046998.3,N
1649651155.3,286046998.4,N
1649651175.2,286046998.6,N
1649651195.0,286046998.2,N
1649651195.9,286046998.2,N
1649651215.8,286046999.1,N
1649651235.6,286046999.2,N
1649651255.4,286046999.4,N
1649651275.3,286046999.6,N
1649651295.1,286046996.6,N
1649651315.8,286046999.5,N
1649651335.7,286046996.6,N
1649651355.5,286046996.5,N
1649651375.4,286046999.2,N
1649651395.2,286046997.2,N
1649651415.0,286046997.0,N
1649651415.9,286046997.0,N
1649651435.8,286046996.9,N
1649651455.6,286046995.4,N
1649651475.5,286046995.3,N
1649651495.3,286046995.1,N
1649651515.1,286046995.8,N
1649651535.9,286046997.0,N
1649651555.7,286046999.3,N
1649651575.5,286046996.6,N
1649651595.4,286046996.9,N
1649651615.2,286046999.6,N
1649651635.1,286046999.6,N
1649651636.0,286046999.6,N
1649651655.8,286046996.6,N
1649651675.6,286047001.0,N
1649651695.5,286046999.0,N
1649651715.3,286046999.1,N
1649651735.1,286046996.5,N
1649651755.9,286046997.3,N
1649651775.7,286046995.3,N
1649651795.6,286046994.9,Y
1649651815.4,286046996.9,P
1649651835.2,286046996.6,P
1649651855.1,286046999.5,N
1649651856.0,286046999.5,N
1649651875.8,286046998.3,N
1649651895.6,286046998.8,N
1649651915.5,286046998.4,N
1649651935.3,286046999.1,N
1649651955.2,286046997.2,N
1649651975.9,286046997.4,N
1649651995.7,286046997.0,Y
1649652015.6,286047000.3,P
1649652035.4,286047000.8,N
1649652055.2,286046998.4,N
1649652075.1,286047000.1,N
1649652076.0,286047000.1,N
1649652095.8,286047001.0,N
1649652115.7,286047000.8,N
1649652135.5,286047001.2,N
1649652185.4,286047002.2,E
1649652195.3,286047000.0,N
1649652215.1,286047000.4,P
1649652235.9,286047001.2,P
1649652255.7,286046998.4,Y
1649652275.5,286047001.2,P
1649652295.4,286046999.4,N
1649652315.2,286046996.7,P
1649652335.0,286046999.0,N
1649652335.9,286046999.0,N
1649652355.8,286046997.4,N
1649652375.6,286046997.4,N
1649652395.5,286046997.0,N
1649652415.3,286046999.3,N
1649652435.1,286046999.3,N
1649652455.9,286046999.2,N
1649652475.7,286046999.2,N
1649652495.5,286046999.1,N
1649652515.4,286046996.9,N
1649652535.2,286046998.9,N
1649652555.1,286046999.0,N
1649652556.0,286046999.0,N
1649652575.8,286046998.4,N
1649652595.6,286046997.0,N
1649652615.5,286046997.3,N
1649652635.3,286046997.7,N
1649652655.1,286046999.3,N
1649652675.9,286046999.5,N
1649652695.7,286046996.7,N
1649652715.6,286046995.3,Y
1649652735.4,286046999.5,P
1649652755.2,286046998.2,P
1649652775.1,286046998.3,P
1649652776.0,286046998.3,Y
1649652795.8,286046998.4,P
1649652815.6,286046998.1,P
1649652835.5,286046998.8,P
1649652855.3,286046999.3,N
1649652875.2,286046996.8,Y
1649652895.9,286046998.7,P
1649652915.7,286046998.9,P
1649652935.6,286046999.3,P
1649652955.4,286046999.2,Y
1649652975.3,286047001.2,P
1649652995.1,286047001.2,N
1649652996.0,286047001.2,N
1649653015.8,286047001.1,N
1649653035.7,286047000.3,N
1649653055.5,286047002.6,Y
1649653075.3,286047000.9,P
1649653095.2,286046998.8,P
1649653115.0,286046999.2,N
1649653115.9,286046999.2,N
1649653135.8,286046996.6,Y
1649653155.6,286046997.0,P
1649653175.4,286046997.3,N
1649653195.3,286046996.5,N
